Regional Weather Roundup
Issued by NWS Northern Indiana

Home | Current Version | Previous Version | Text Only | Print | Product List | Glossary Off
Versions: 1 2 3 4 5 6 7 8 9 10 11 12 13 14 15 16 17 18 19 20 21 22 23 24 25 26 27 28 29 30 31 32 33 34 35 36 37 38 39 40 41 42 43 44 45 46 47 48 49 50

000
ASUS43 KIWX 242310
RWRIWX

KIWX WEATHER ROUNDUP
NATIONAL WEATHER SERVICE NORTHERN INDIANA
700 PM EDT THU MAY 24 2018

NOTE: "FAIR" INDICATES FEW OR NO CLOUDS BELOW 12,000 FEET WITH NO
SIGNIFICANT WEATHER AND/OR OBSTRUCTIONS TO VISIBILITY.

* THESE STATIONS ARE NOT UNDER NWS QUALITY CONTROL. THEY ALSO MAY NOT
  REPORT WEATHER SUCH AS PRECIPITATION OR FOG.

INZ001>027-250000-
NORTHERN INDIANA

CITY           SKY/WX    TMP DP  RH WIND       PRES   REMARKS
GARY*          MOSUNNY   82  50  32 NE8       30.07F
VALPARAISO     FAIR      85  54  34 SE8       30.08F
LAPORTE*       FAIR      82  51  33 E5        30.09F
KNOX*          FAIR      82  45  26 CALM      30.08F
SOUTH BEND     FAIR      80  47  31 S5        30.10F
ELKHART*       FAIR      84  45  24 CALM      30.09F
GOSHEN         FAIR      80  50  34 S6        30.10F
ROCHESTER*     FAIR      84  41  21 SE5       30.09F
WARSAW*        FAIR      81  50  34 E3        30.10F
AUBURN*        FAIR      81  48  32 CALM      30.11F
FORT WAYNE     FAIR      82  48  30 S6        30.10F
PERU/GRISSOM   FAIR      84  49  29 CALM      30.08F
MARION*        FAIR      82  47  30 CALM      30.10F HAZE

$$
INZ028>050-250000-
CENTRAL INDIANA

CITY           SKY/WX    TMP DP  RH WIND       PRES   REMARKS
LAFAYETTE      FAIR      83  48  29 E3        30.05F
KOKOMO*        FAIR      83  46  27 S7        30.09F
MUNCIE*        FAIR      84  48  28 SE7       30.09F
INDIANAPOLIS   FAIR      82  47  29 SE8       30.07F

$$
MIZ043>046-050>051-056>058-064>065-071>073-077>080-250000-
SOUTHWEST LOWER MICHIGAN

CITY           SKY/WX    TMP DP  RH WIND       PRES   REMARKS
BATTLE CREEK   FAIR      80  49  33 SW5       30.11F
BENTON HARBOR  FAIR      80  53  39 VRB5      30.08F
COLDWATER*     FAIR      80  38  22 SW3       30.11F
HILLSDALE*     FAIR      79  43  27 SW5       30.12F
HOLLAND        FAIR      79  54  41 W7        30.09F
GRAND RAPIDS   FAIR      82  57  42 S7        30.08F
KALAMAZOO      FAIR      81  49  32 S7        30.10F
STURGIS*       FAIR      78  51  38 S7        30.11S
THREE RIVERS*  FAIR      79  45  30 S5        30.11F

$$
OHZ001>008-015>018-024>025-250000-
NORTHWEST OHIO

CITY           SKY/WX    TMP DP  RH WIND       PRES   REMARKS
DEFIANCE       FAIR      81  47  30 S5        30.10F
FINDLAY        FAIR      80  51  36 S6        30.10F
TOLEDO EXPRESS FAIR      82  48  30 SE3       30.10F
TOLEDO METCALF FAIR      80  52  37 NE8       30.11F
LIMA           FAIR      81  48  31 SE8       30.11F

$$
AND FOR LAKE MICHIGAN COASTAL AND OPEN LAKE BUOY OBSERVATIONS

STATION/POSITION TEMP    WIND        PRES    VSBY  WAVE
                 AIR SEA DIR/SP/G                  HT/PER
                 (F)     (DEG/KT/KT) (MB)    (MI)  (FT/S)
CALUMET HARBOR    71      80/  7/  9 1017.5F
MICHIGAN CITY     70      40/ 13/ 13   N/A
BURNS HARBOR      69      70/  9/ 10 1019.0F
SAINT JOSEPH      75      10/  5/  5 1019.0
SOUTH LAKE BUOY   60 41  140/  8/  8 1018.6F         0
4 MI NW BRIDGMAN  67 64   60/  4/  4 1018.7          0
MICHIGAN CITY     65 62   70/  6/  6   N/A           0

$$
&&



USA.gov is the U.S. government's official web portal to all federal, state and local government web resources and services.